Weather History for CYQQ - September, 2013

Change the Weather History Date:

Monday, September 2, 2013

  Actual Average Record
Temperature  
Mean Temperature 64 °F -  
Max Temperature 71 °F 64 °F 82 °F (2003)
Min Temperature 56 °F 48 °F 46 °F (1999)
Degree Days  
Heating Degree Days 2    
Growing Degree Days 14 (Base 50)    
Moisture  
Dew Point 58 °F    
Average Humidity 78    
Maximum Humidity 94    
Minimum Humidity 60    
Precipitation  
Precipitation 0.00 in 0.07 in - ()
Sea Level Pressure  
Sea Level Pressure 29.89 in    
Wind  
Wind Speed 2 mph ()    
Max Wind Speed 8 mph    
Max Gust Speed -    
Visibility 19.5 miles    
Events Rain    
Averages and records for this station are not official NWS values.
T = Trace of Precipitation, MM = Missing Value Source: Averaged Metar Reports

Daily Weather History Graph

Daily Weather History Graph

Search for Another Location

Airport or City:

Trip Planner

Search our weather history database for the weather conditions in past years. The results will help you decide how hot, cold, wet, or windy it might be!

Date:

Astronomy

Sep. 02, 2013 Rise Set
Actual Time 6:37 AM PDT 8:00 PM PDT
Civil Twilight 6:03 AM PDT 8:33 PM PDT
Nautical Twilight 5:23 AM PDT 9:13 PM PDT
Astronomical Twilight 4:39 AM PDT 9:57 PM PDT
Moon 3:50 AM PDT (9/2) 6:23 PM PDT (9/2)
Length of Visible Light 14h 29m
Length of Day
13h 23m
Waning Crescent, 7% of the Moon is Illuminated
Sep 2
Waning Crescent
Sep 5
New
Sep 12
First Quarter
Sep 19
Full
Sep 26
Last Quarter

Hourly Weather History & Observations

Time (PDT) Temp. Dew Point Humidity Pressure Visibility Wind Dir Wind Speed Gust Speed Precip Events Conditions
12:00 AM 66.2 °F 57.2 °F 73% 29.83 in 20.0 mi Calm Calm - N/A   Scattered Clouds
1:00 AM 62.6 °F 57.2 °F 82% 29.84 in 20.0 mi NE 2.3 mph - N/A   Clear
2:00 AM 60.8 °F 55.4 °F 82% 29.86 in 20.0 mi Calm Calm - N/A   Partly Cloudy
3:00 AM 62.6 °F 55.4 °F 77% 29.86 in 20.0 mi Calm Calm - N/A   Mostly Cloudy
4:00 AM 60.8 °F 55.4 °F 82% 29.87 in 20.0 mi Calm Calm - N/A   Scattered Clouds
5:00 AM 58 °F 54 °F 84% 29.87 in 19 mi NW 2.3 mph - -   Partly Cloudy
5:00 AM 57.2 °F 55.4 °F 94% 29.87 in 20.0 mi NW 2.3 mph - N/A   Scattered Clouds
6:00 AM 60.8 °F 57.2 °F 88% 29.88 in 20.0 mi West 2.3 mph - N/A   Mostly Cloudy
7:00 AM 60.8 °F 57.2 °F 88% 29.89 in 20.0 mi NNW 2.3 mph - N/A   Mostly Cloudy
8:00 AM 62.6 °F 59.0 °F 88% 29.90 in 20.0 mi NW 4.6 mph - N/A   Mostly Cloudy
9:00 AM 66.2 °F 59.0 °F 78% 29.91 in 20.0 mi NW 3.5 mph - N/A   Mostly Cloudy
10:00 AM 66.2 °F 59.0 °F 78% 29.91 in 20.0 mi ENE 3.5 mph - N/A   Mostly Cloudy
11:00 AM 66 °F 60 °F 74% 29.91 in 19 mi East 4.6 mph - -   Scattered Clouds
11:00 AM 66.2 °F 59.0 °F 78% 29.91 in 20.0 mi ESE 4.6 mph - N/A   Mostly Cloudy
12:00 PM 68.0 °F 60.8 °F 78% 29.91 in 20.0 mi East 5.8 mph - N/A   Mostly Cloudy
1:00 PM 69.8 °F 59.0 °F 68% 29.90 in 20.0 mi East 5.8 mph - N/A   Mostly Cloudy
2:00 PM 71.6 °F 57.2 °F 60% 29.89 in 20.0 mi East 5.8 mph - N/A   Scattered Clouds
3:00 PM 68.0 °F 59.0 °F 73% 29.89 in 20.0 mi East 8.1 mph - N/A   Mostly Cloudy
4:00 PM 69.8 °F 57.2 °F 64% 29.89 in 20.0 mi SE 6.9 mph - N/A   Mostly Cloudy
5:00 PM 69.8 °F 57.2 °F 64% 29.88 in 20.0 mi ESE 4.6 mph - N/A   Mostly Cloudy
6:00 PM 69.8 °F 59.0 °F 68% 29.88 in 20.0 mi SSE 3.5 mph - N/A   Mostly Cloudy
7:00 PM 69.8 °F 59.0 °F 68% 29.88 in 20.0 mi SSE 2.3 mph - N/A   Mostly Cloudy
8:00 PM 66.2 °F 57.2 °F 73% 29.87 in 20.0 mi Calm Calm - N/A   Mostly Cloudy
8:32 PM - - N/A% - 20.0 mi Calm Calm - N/A   Mostly Cloudy
9:00 PM 66.2 °F 59.0 °F 78% 29.90 in 20.0 mi SSW 4.6 mph - N/A   Mostly Cloudy
9:28 PM - - N/A% - 20.0 mi South 5.8 mph - N/A Rain Light Rain Showers
9:39 PM - - N/A% - 12.0 mi South 4.6 mph - N/A Rain Rain Showers
9:53 PM - - N/A% - 15.0 mi SSW 2.3 mph - N/A Rain Light Rain Showers
10:00 PM 64.4 °F 59.0 °F 83% 29.92 in 20.0 mi WSW 2.3 mph - N/A Rain Light Rain Showers
10:12 PM - - N/A% - 20.0 mi Calm Calm - N/A   Scattered Clouds
11:00 PM 62.6 °F 60.8 °F 94% 29.93 in 20.0 mi Calm Calm - N/A   Mostly Cloudy